Regional Weather Roundup
Issued by NWS Jackson, KY

Home | Current Version | Previous Version | Text Only | Print | Product List | Glossary Off
Versions: 1 2 3 4 5 6 7 8 9 10 11 12 13 14 15 16 17 18 19 20 21 22 23 24 25 26 27 28 29 30 31 32 33 34 35 36 37 38 39 40 41 42 43 44 45 46 47 48 49 50

852
ASUS43 KJKL 300810
RWRJKL

EAST KENTUCKY HOURLY WEATHER ROUNDUP
NATIONAL WEATHER SERVICE JACKSON KY
400 AM EDT TUE AUG 30 2016

NOTE: "FAIR" INDICATES FEW OR NO CLOUDS BELOW 12,000 FEET WITH
NO SIGNIFICANT WEATHER AND/OR OBSTRUCTIONS TO VISIBILITY.

* THESE REPORTS ARE NOT UNDER NWS QUALITY CONTROL AND MAY NOT
  REPORT WEATHER SUCH AS PRECIPITATION AND FOG.

KYZ079-080-083-085-087-088-110-112-115-119-120-300900
...EASTERN KENTUCKY...

CITY           SKY/WX    TMP DP  RH WIND       PRES   REMARKS
JACKSON        CLEAR     71  68  90 CALM      30.16S
LONDON         CLEAR     70  66  87 CALM      30.14S
SOMERSET*      CLEAR     70  68  94 CALM      30.14S
MONTICELLO*    CLEAR    N/A N/A N/A VRB3      30.15S
WILLIAMSBURG*  SUNNY     68  68 100 CALM      30.14S
MIDDLESBORO*   FOG       69  69 100 CALM      30.15F VSB 1
HARLAN APT*      N/A     68  68 100 CALM      30.17S
PIKE CO APT*     N/A     68  68  99 SE3       30.16S
BIG SANDY APT* FOG       69  69 100 CALM      30.16S VSB<1/4
MOREHEAD APT*  SUNNY     73  64  73 NE3       30.17S
$$

KYZ035-036-041-042-044-050-067-078-099-300900
...CENTRAL KENTUCKY...

CITY           SKY/WX    TMP DP  RH WIND       PRES   REMARKS
MT STERLING*   CLEAR     70  68  94 CALM      30.17S
FLEMING/MASON* CLEAR     70  68  95 CALM      30.17S
DANVILLE*      PTCLDY    68  68 100 CALM      30.15S
LEXINGTON      CLEAR     72  68  87 NE3       30.15S
FRANKFORT      CLEAR     71  68  90 CALM      30.14R
LOUISVILLE     CLEAR     77  71  82 N3        30.12F
LEBANON*         N/A     72  72 100 CALM      30.14F
GLASGOW*       CLEAR     72  72 100 NE5       30.12S
BOWLING GREEN  CLEAR     73  70  90 CALM      30.11S
$$

KYZ091>093-OHZ055-061-077-WVZ005-015-034-035-042-300900
...SOUTHERN OHIO/WEST VIRGINIA...

CITY           SKY/WX    TMP DP  RH WIND       PRES   REMARKS
COVINGTON      CLEAR     75  70  84 NE6       30.17R
COLUMBUS       CLEAR     68  60  75 E3        30.18S
DAYTON         CLEAR     67  64  90 N3        30.20S
WILMINGTON     CLEAR     65  64  97 CALM      30.19R
HUNTINGTON     CLEAR     73  68  84 CALM      30.14S
CHARLESTON     PTCLDY    70  68  93 CALM      30.14S
PINEVILLE*     FOG       69  65  89 MISG      30.23F VSB 1/2
BECKLEY        CLEAR     67  65  93 S3        30.22S
BLUEFIELD      CLEAR     66  62  87 CALM      30.25S
LOGAN CO APT*  FOG       70  70 100 CALM      30.16S VSB<1/4
$$

VAZ002-007-008-TNZ017-027-036-066-071-300900
...SOUTHWEST VIRGINIA/EAST TENNESSEE...

CITY           SKY/WX    TMP DP  RH WIND       PRES   REMARKS
WISE*          PTCLDY    64  63  94 CALM      30.24S
JONESVILLE*      N/A     66  66 100 CALM      30.18S FOG
ABINGDON*      CLEAR     70  65  84 E5        30.20S
BRISTOL        CLEAR     67  65  93 CALM      30.16S
MORRISTOWN*    SUNNY     73  68  83 E5        30.13R
SEVIERVILLE*   SUNNY     66  64  94 CALM      30.11S
KNOXVILLE      CLEAR     73  65  75 CALM      30.10S
OAK RIDGE      CLEAR     73  70  90 CALM      30.13R
CROSSVILLE     CLEAR     69  68  96 CALM      30.17R FOG
NASHVILLE      CLEAR     77  71  82 N3        30.10S
$$

...KEY TO REMARKS...
VSB - VISIBILITY IN MILES
WCI - WIND CHILL INDEX
HX  - HEAT INDEX

$$




USA.gov is the U.S. government's official web portal to all federal, state and local government web resources and services.